Time,TemperatureF,DewpointF,PressureIn,WindDirection,WindDirectionDegrees,WindSpeedMPH,WindSpeedGustMPH,Humidity,HourlyPrecipIn,Conditions,Clouds,dailyrainin,SoftwareType,DateUTC
2013-02-28 00:02:00,37.4,32.7,29.79,West,273,2.0,-999.0,83,0.00,,,0.00,Wunderground v.1.15,2013-02-28 05:02:00,
2013-02-28 00:04:00,37.4,32.7,29.79,WSW,256,2.0,-999.0,83,0.00,,,0.00,Wunderground v.1.15,2013-02-28 05:04:00,
2013-02-28 00:06:00,37.4,32.7,29.79,West,275,3.0,-999.0,83,0.00,,,0.00,Wunderground v.1.15,2013-02-28 05:06:00,
2013-02-28 00:08:00,37.3,32.6,29.79,West,265,3.0,-999.0,83,0.00,,,0.00,Wunderground v.1.15,2013-02-28 05:08:00,
2013-02-28 00:14:00,37.3,32.9,29.79,West,271,3.0,-999.0,84,0.00,,,0.00,Wunderground v.1.15,2013-02-28 05:14:00,
2013-02-28 00:19:00,37.3,32.9,29.79,West,259,2.0,-999.0,84,0.00,,,0.00,Wunderground v.1.15,2013-02-28 05:19:00,
2013-02-28 00:25:00,37.3,32.9,29.79,West,262,2.0,-999.0,84,0.00,,,0.00,Wunderground v.1.15,2013-02-28 05:25:00,
2013-02-28 00:32:00,37.2,32.8,29.78,West,264,2.0,-999.0,84,0.00,,,0.00,Wunderground v.1.15,2013-02-28 05:32:00,
2013-02-28 00:38:00,37.2,32.8,29.78,West,264,3.0,-999.0,84,0.00,,,0.00,Wunderground v.1.15,2013-02-28 05:38:00,
2013-02-28 00:44:00,37.2,32.8,29.78,West,263,4.0,-999.0,84,0.00,,,0.00,Wunderground v.1.15,2013-02-28 05:44:00,
2013-02-28 00:49:00,37.2,32.8,29.78,West,269,3.0,-999.0,84,0.00,,,0.00,Wunderground v.1.15,2013-02-28 05:49:00,
2013-02-28 00:56:00,37.1,32.7,29.78,WSW,238,2.0,-999.0,84,0.00,,,0.00,Wunderground v.1.15,2013-02-28 05:56:00,
2013-02-28 01:02:00,37.1,32.7,29.78,West,265,2.0,-999.0,84,0.00,,,0.00,Wunderground v.1.15,2013-02-28 06:02:00,
2013-02-28 01:07:00,37.1,33.0,29.78,SW,233,2.0,-999.0,85,0.00,,,0.00,Wunderground v.1.15,2013-02-28 06:07:00,
2013-02-28 01:14:00,37.1,32.7,29.78,West,263,2.0,-999.0,84,0.00,,,0.00,Wunderground v.1.15,2013-02-28 06:14:00,
2013-02-28 01:20:00,37.1,32.7,29.78,West,269,4.0,-999.0,84,0.00,,,0.00,Wunderground v.1.15,2013-02-28 06:20:00,
2013-02-28 01:26:00,37.0,32.9,29.78,NW,313,4.0,-999.0,85,0.00,,,0.00,Wunderground v.1.15,2013-02-28 06:26:00,
2013-02-28 01:32:00,36.6,33.1,29.78,NW,306,7.0,-999.0,87,0.00,,,0.00,Wunderground v.1.15,2013-02-28 06:32:00,
2013-02-28 01:37:00,35.9,32.7,29.78,NW,314,10.0,-999.0,88,0.00,,,0.00,Wunderground v.1.15,2013-02-28 06:37:00,
2013-02-28 01:44:00,35.2,32.6,29.78,NW,304,9.0,-999.0,90,0.00,,,0.00,Wunderground v.1.15,2013-02-28 06:44:00,
2013-02-28 01:50:00,34.7,32.3,29.79,NW,318,6.0,-999.0,91,0.00,,,0.00,Wunderground v.1.15,2013-02-28 06:50:00,
2013-02-28 01:55:00,34.4,32.3,29.79,NW,318,4.0,-999.0,92,0.00,,,0.00,Wunderground v.1.15,2013-02-28 06:55:00,
2013-02-28 02:01:00,34.4,32.3,29.79,NW,318,1.0,-999.0,92,0.00,,,0.00,Wunderground v.1.15,2013-02-28 07:01:00,
2013-02-28 02:08:00,34.4,32.6,29.79,NW,309,1.0,-999.0,93,0.00,,,0.00,Wunderground v.1.15,2013-02-28 07:08:00,
2013-02-28 02:14:00,34.4,32.6,29.79,WNW,300,1.0,-999.0,93,0.00,,,0.00,Wunderground v.1.15,2013-02-28 07:14:00,
2013-02-28 02:19:00,34.4,32.6,29.80,West,275,1.0,-999.0,93,0.00,,,0.00,Wunderground v.1.15,2013-02-28 07:19:00,
2013-02-28 02:25:00,34.3,32.5,29.80,WNW,302,1.0,-999.0,93,0.00,,,0.00,Wunderground v.1.15,2013-02-28 07:25:00,
2013-02-28 02:32:00,34.3,32.5,29.79,WNW,302,1.0,-999.0,93,0.00,,,0.00,Wunderground v.1.15,2013-02-28 07:32:00,
2013-02-28 02:38:00,34.3,32.5,29.79,WNW,302,0.0,-999.0,93,0.00,,,0.00,Wunderground v.1.15,2013-02-28 07:38:00,
2013-02-28 02:44:00,34.2,32.4,29.79,WNW,302,0.0,-999.0,93,0.00,,,0.00,Wunderground v.1.15,2013-02-28 07:44:00,
2013-02-28 02:49:00,34.2,32.4,29.79,WNW,297,1.0,-999.0,93,0.00,,,0.00,Wunderground v.1.15,2013-02-28 07:49:00,
2013-02-28 02:55:00,34.2,32.4,29.79,WNW,292,1.0,-999.0,93,0.00,,,0.00,Wunderground v.1.15,2013-02-28 07:55:00,
2013-02-28 03:02:00,34.2,32.4,29.79,WNW,291,1.0,-999.0,93,0.00,,,0.00,Wunderground v.1.15,2013-02-28 08:02:00,
2013-02-28 03:08:00,34.1,32.3,29.79,West,280,1.0,-999.0,93,0.00,,,0.00,Wunderground v.1.15,2013-02-28 08:08:00,
2013-02-28 03:14:00,34.1,32.3,29.79,WNW,295,1.0,-999.0,93,0.00,,,0.00,Wunderground v.1.15,2013-02-28 08:14:00,
2013-02-28 03:19:00,33.9,32.1,29.80,WNW,289,2.0,-999.0,93,0.00,,,0.00,Wunderground v.1.15,2013-02-28 08:19:00,
2013-02-28 03:26:00,33.7,32.2,29.80,West,264,2.0,-999.0,94,0.00,,,0.00,Wunderground v.1.15,2013-02-28 08:26:00,
2013-02-28 03:32:00,33.5,32.0,29.80,West,269,3.0,-999.0,94,0.00,,,0.00,Wunderground v.1.15,2013-02-28 08:32:00,
2013-02-28 03:37:00,33.3,32.0,29.80,West,272,3.0,-999.0,95,0.00,,,0.00,Wunderground v.1.15,2013-02-28 08:37:00,
2013-02-28 03:43:00,33.1,31.8,29.80,NW,304,3.0,-999.0,95,0.00,,,0.00,Wunderground v.1.15,2013-02-28 08:43:00,
2013-02-28 03:50:00,33.0,31.7,29.80,NW,315,3.0,-999.0,95,0.00,,,0.00,Wunderground v.1.15,2013-02-28 08:50:00,
2013-02-28 03:56:00,32.9,31.6,29.80,NW,308,4.0,-999.0,95,0.00,,,0.00,Wunderground v.1.15,2013-02-28 08:56:00,
2013-02-28 04:01:00,32.8,31.5,29.80,NW,306,3.0,-999.0,95,0.00,,,0.00,Wunderground v.1.15,2013-02-28 09:01:00,
2013-02-28 04:08:00,32.8,31.5,29.80,NW,307,2.0,-999.0,95,0.00,,,0.00,Wunderground v.1.15,2013-02-28 09:08:00,
2013-02-28 04:14:00,32.7,31.4,29.80,NW,315,2.0,-999.0,95,0.00,,,0.00,Wunderground v.1.15,2013-02-28 09:14:00,
2013-02-28 04:19:00,32.7,31.4,29.80,West,281,2.0,-999.0,95,0.00,,,0.00,Wunderground v.1.15,2013-02-28 09:19:00,
2013-02-28 04:26:00,32.6,31.3,29.80,West,277,1.0,-999.0,95,0.00,,,0.00,Wunderground v.1.15,2013-02-28 09:26:00,
2013-02-28 04:32:00,32.6,31.3,29.80,West,281,1.0,-999.0,95,0.00,,,0.00,Wunderground v.1.15,2013-02-28 09:32:00,
2013-02-28 04:38:00,32.6,31.3,29.80,WNW,291,2.0,-999.0,95,0.00,,,0.00,Wunderground v.1.15,2013-02-28 09:38:00,
2013-02-28 04:43:00,32.6,31.1,29.80,West,265,3.0,-999.0,94,0.00,,,0.00,Wunderground v.1.15,2013-02-28 09:43:00,
2013-02-28 04:49:00,32.6,31.1,29.80,West,271,2.0,-999.0,94,0.00,,,0.00,Wunderground v.1.15,2013-02-28 09:49:00,
2013-02-28 04:56:00,32.6,30.8,29.80,West,267,4.0,-999.0,93,0.00,,,0.00,Wunderground v.1.15,2013-02-28 09:56:00,
2013-02-28 05:02:00,32.7,30.9,29.81,WNW,299,3.0,-999.0,93,0.00,,,0.00,Wunderground v.1.15,2013-02-28 10:02:00,
2013-02-28 05:08:00,32.7,30.6,29.81,NW,306,3.0,-999.0,92,0.00,,,0.00,Wunderground v.1.15,2013-02-28 10:08:00,
2013-02-28 05:13:00,32.7,30.6,29.81,West,280,3.0,-999.0,92,0.00,,,0.00,Wunderground v.1.15,2013-02-28 10:13:00,
2013-02-28 05:19:00,32.8,30.5,29.81,WNW,293,3.0,-999.0,91,0.00,,,0.00,Wunderground v.1.15,2013-02-28 10:19:00,
2013-02-28 05:26:00,32.7,30.1,29.81,NW,306,4.0,-999.0,90,0.00,,,0.00,Wunderground v.1.15,2013-02-28 10:26:00,
2013-02-28 05:32:00,32.7,29.8,29.82,NW,315,5.0,-999.0,89,0.00,,,0.00,Wunderground v.1.15,2013-02-28 10:32:00,
2013-02-28 05:37:00,32.7,29.8,29.82,WNW,297,5.0,-999.0,89,0.00,,,0.00,Wunderground v.1.15,2013-02-28 10:37:00,
2013-02-28 05:44:00,32.7,29.8,29.82,NW,313,4.0,-999.0,89,0.00,,,0.00,Wunderground v.1.15,2013-02-28 10:44:00,
2013-02-28 05:50:00,32.6,30.0,29.82,WNW,285,2.0,-999.0,90,0.00,,,0.00,Wunderground v.1.15,2013-02-28 10:50:00,
2013-02-28 05:56:00,32.6,30.0,29.82,WNW,300,2.0,-999.0,90,0.00,,,0.00,Wunderground v.1.15,2013-02-28 10:56:00,
2013-02-28 06:01:00,32.6,29.7,29.83,WNW,302,1.0,-999.0,89,0.00,,,0.00,Wunderground v.1.15,2013-02-28 11:01:00,
2013-02-28 06:08:00,32.6,29.7,29.83,NW,308,2.0,-999.0,89,0.00,,,0.00,Wunderground v.1.15,2013-02-28 11:08:00,
2013-02-28 06:14:00,32.5,29.9,29.83,NW,310,3.0,-999.0,90,0.00,,,0.00,Wunderground v.1.15,2013-02-28 11:14:00,
2013-02-28 06:19:00,32.5,29.9,29.83,NW,313,2.0,-999.0,90,0.00,,,0.00,Wunderground v.1.15,2013-02-28 11:19:00,
2013-02-28 06:26:00,32.5,29.9,29.83,WNW,294,2.0,-999.0,90,0.00,,,0.00,Wunderground v.1.15,2013-02-28 11:26:00,
2013-02-28 06:32:00,32.6,30.0,29.84,WNW,293,2.0,-999.0,90,0.00,,,0.00,Wunderground v.1.15,2013-02-28 11:32:00,
2013-02-28 06:38:00,32.6,30.0,29.84,NW,306,4.0,-999.0,90,0.00,,,0.00,Wunderground v.1.15,2013-02-28 11:38:00,
2013-02-28 06:44:00,32.6,30.0,29.84,West,273,3.0,-999.0,90,0.00,,,0.00,Wunderground v.1.15,2013-02-28 11:44:00,
2013-02-28 06:49:00,32.6,29.7,29.85,WNW,286,3.0,-999.0,89,0.00,,,0.00,Wunderground v.1.15,2013-02-28 11:49:00,
2013-02-28 06:56:00,32.7,29.5,29.85,NW,314,4.0,-999.0,88,0.00,,,0.00,Wunderground v.1.15,2013-02-28 11:56:00,
2013-02-28 07:02:00,32.7,29.5,29.85,NW,309,5.0,-999.0,88,0.00,,,0.00,Wunderground v.1.15,2013-02-28 12:02:00,
2013-02-28 07:08:00,32.6,29.4,29.85,NW,314,4.0,-999.0,88,0.00,,,0.00,Wunderground v.1.15,2013-02-28 12:08:00,
2013-02-28 07:13:00,32.6,29.7,29.85,West,275,3.0,-999.0,89,0.00,,,0.00,Wunderground v.1.15,2013-02-28 12:13:00,
2013-02-28 07:19:00,32.7,29.8,29.85,West,273,2.0,-999.0,89,0.00,,,0.00,Wunderground v.1.15,2013-02-28 12:19:00,
2013-02-28 07:26:00,32.7,29.8,29.85,West,269,2.0,-999.0,89,0.00,,,0.00,Wunderground v.1.15,2013-02-28 12:26:00,
2013-02-28 07:32:00,32.8,30.2,29.85,NW,306,2.0,-999.0,90,0.00,,,0.00,Wunderground v.1.15,2013-02-28 12:32:00,
2013-02-28 07:38:00,32.8,29.9,29.85,WNW,292,3.0,-999.0,89,0.00,,,0.00,Wunderground v.1.15,2013-02-28 12:38:00,
2013-02-28 07:43:00,32.8,29.6,29.85,WNW,296,5.0,-999.0,88,0.00,,,0.00,Wunderground v.1.15,2013-02-28 12:43:00,
2013-02-28 07:49:00,32.8,29.6,29.85,WNW,288,3.0,-999.0,88,0.00,,,0.00,Wunderground v.1.15,2013-02-28 12:49:00,
2013-02-28 07:56:00,32.8,29.6,29.85,WNW,302,2.0,-999.0,88,0.00,,,0.00,Wunderground v.1.15,2013-02-28 12:56:00,
2013-02-28 08:02:00,32.8,29.4,29.86,WNW,291,3.0,-999.0,87,0.00,,,0.00,Wunderground v.1.15,2013-02-28 13:02:00,
2013-02-28 08:08:00,32.8,29.1,29.86,West,263,2.0,-999.0,86,0.00,,,0.00,Wunderground v.1.15,2013-02-28 13:08:00,
2013-02-28 08:13:00,32.9,29.2,29.86,West,261,2.0,-999.0,86,0.00,,,0.00,Wunderground v.1.15,2013-02-28 13:13:00,
2013-02-28 08:20:00,32.9,28.9,29.86,West,265,2.0,-999.0,85,0.00,,,0.00,Wunderground v.1.15,2013-02-28 13:20:00,
2013-02-28 08:26:00,33.0,29.0,29.86,West,269,2.0,-999.0,85,0.00,,,0.00,Wunderground v.1.15,2013-02-28 13:26:00,
2013-02-28 08:32:00,33.1,28.8,29.87,West,276,2.0,-999.0,84,0.00,,,0.00,Wunderground v.1.15,2013-02-28 13:32:00,
2013-02-28 08:37:00,33.1,28.8,29.87,WNW,282,1.0,-999.0,84,0.00,,,0.00,Wunderground v.1.15,2013-02-28 13:37:00,
2013-02-28 08:43:00,33.2,28.9,29.87,West,261,1.0,-999.0,84,0.00,,,0.00,Wunderground v.1.15,2013-02-28 13:43:00,
2013-02-28 08:50:00,33.3,29.0,29.87,WSW,252,3.0,-999.0,84,0.00,,,0.00,Wunderground v.1.15,2013-02-28 13:50:00,
2013-02-28 08:56:00,33.3,28.7,29.87,West,266,4.0,-999.0,83,0.00,,,0.00,Wunderground v.1.15,2013-02-28 13:56:00,
2013-02-28 09:02:00,33.4,28.8,29.88,WSW,257,3.0,-999.0,83,0.00,,,0.00,Wunderground v.1.15,2013-02-28 14:02:00,
2013-02-28 09:08:00,33.5,28.9,29.88,WSW,254,2.0,-999.0,83,0.00,,,0.00,Wunderground v.1.15,2013-02-28 14:08:00,
2013-02-28 09:14:00,33.7,29.4,29.88,WSW,250,3.0,-999.0,84,0.00,,,0.00,Wunderground v.1.15,2013-02-28 14:14:00,
2013-02-28 09:20:00,33.8,29.2,29.88,WSW,242,4.0,-999.0,83,0.00,,,0.00,Wunderground v.1.15,2013-02-28 14:20:00,
2013-02-28 09:25:00,33.9,29.3,29.88,West,261,4.0,-999.0,83,0.00,,,0.00,Wunderground v.1.15,2013-02-28 14:25:00,
2013-02-28 09:31:00,34.1,29.2,29.88,West,276,4.0,-999.0,82,0.00,,,0.00,Wunderground v.1.15,2013-02-28 14:31:00,
2013-02-28 09:38:00,34.3,29.7,29.88,West,269,5.0,-999.0,83,0.00,,,0.00,Wunderground v.1.15,2013-02-28 14:38:00,
2013-02-28 09:43:00,34.4,29.5,29.88,West,272,3.0,-999.0,82,0.00,,,0.00,Wunderground v.1.15,2013-02-28 14:43:00,
2013-02-28 09:50:00,34.9,30.3,29.88,West,274,5.0,-999.0,83,0.00,,,0.00,Wunderground v.1.15,2013-02-28 14:50:00,
2013-02-28 09:56:00,36.0,30.4,29.88,WSW,257,5.0,-999.0,80,0.00,,,0.00,Wunderground v.1.15,2013-02-28 14:56:00,
2013-02-28 10:02:00,35.8,29.9,29.88,West,273,6.0,-999.0,79,0.00,,,0.00,Wunderground v.1.15,2013-02-28 15:02:00,
2013-02-28 10:08:00,35.6,29.7,29.88,WNW,303,7.0,-999.0,79,0.00,,,0.00,Wunderground v.1.15,2013-02-28 15:08:00,
2013-02-28 10:13:00,35.5,29.3,29.88,WNW,285,7.0,-999.0,78,0.00,,,0.00,Wunderground v.1.15,2013-02-28 15:13:00,
2013-02-28 10:19:00,35.5,30.2,29.89,West,272,6.0,-999.0,81,0.00,,,0.00,Wunderground v.1.15,2013-02-28 15:19:00,
2013-02-28 10:26:00,35.8,30.5,29.89,WNW,285,5.0,-999.0,81,0.00,,,0.00,Wunderground v.1.15,2013-02-28 15:26:00,
2013-02-28 10:32:00,36.4,30.5,29.89,NW,321,6.0,-999.0,79,0.00,,,0.00,Wunderground v.1.15,2013-02-28 15:32:00,
2013-02-28 10:38:00,37.0,32.0,29.89,NW,307,5.0,-999.0,82,0.00,,,0.00,Wunderground v.1.15,2013-02-28 15:38:00,
2013-02-28 10:43:00,37.3,31.1,29.89,West,277,4.0,-999.0,78,0.00,,,0.00,Wunderground v.1.15,2013-02-28 15:43:00,
2013-02-28 10:49:00,37.1,30.9,29.89,NW,309,4.0,-999.0,78,0.00,,,0.00,Wunderground v.1.15,2013-02-28 15:49:00,
2013-02-28 10:56:00,37.1,30.9,29.89,WNW,299,4.0,-999.0,78,0.00,,,0.00,Wunderground v.1.15,2013-02-28 15:56:00,
2013-02-28 11:02:00,37.1,30.6,29.89,NW,314,5.0,-999.0,77,0.00,,,0.00,Wunderground v.1.15,2013-02-28 16:02:00,
2013-02-28 11:07:00,36.9,30.7,29.89,WNW,294,7.0,-999.0,78,0.00,,,0.00,Wunderground v.1.15,2013-02-28 16:07:00,
2013-02-28 11:14:00,37.1,30.9,29.89,WNW,303,6.0,-999.0,78,0.00,,,0.00,Wunderground v.1.15,2013-02-28 16:14:00,
2013-02-28 11:20:00,37.7,31.5,29.89,NW,306,5.0,-999.0,78,0.00,,,0.00,Wunderground v.1.15,2013-02-28 16:20:00,
2013-02-28 11:26:00,37.2,30.7,29.89,West,267,5.0,-999.0,77,0.00,,,0.00,Wunderground v.1.15,2013-02-28 16:26:00,
2013-02-28 11:31:00,37.0,30.8,29.90,WNW,296,5.0,-999.0,78,0.00,,,0.00,Wunderground v.1.15,2013-02-28 16:31:00,
2013-02-28 11:37:00,36.6,30.7,29.90,West,268,5.0,-999.0,79,0.00,,,0.00,Wunderground v.1.15,2013-02-28 16:37:00,
2013-02-28 11:44:00,36.6,31.0,29.90,WNW,302,6.0,-999.0,80,0.00,,,0.00,Wunderground v.1.15,2013-02-28 16:44:00,
2013-02-28 11:50:00,36.5,30.9,29.91,NW,315,6.0,-999.0,80,0.00,,,0.00,Wunderground v.1.15,2013-02-28 16:50:00,
2013-02-28 11:55:00,36.5,30.9,29.91,NW,313,8.0,-999.0,80,0.00,,,0.00,Wunderground v.1.15,2013-02-28 16:55:00,
2013-02-28 12:02:00,36.4,30.8,29.91,NW,306,10.0,-999.0,80,0.00,,,0.00,Wunderground v.1.15,2013-02-28 17:02:00,
2013-02-28 12:08:00,36.1,30.8,29.91,WNW,290,7.0,-999.0,81,0.00,,,0.00,Wunderground v.1.15,2013-02-28 17:08:00,
2013-02-28 12:14:00,36.0,30.7,29.91,WNW,303,5.0,-999.0,81,0.00,,,0.00,Wunderground v.1.15,2013-02-28 17:14:00,
2013-02-28 12:20:00,36.0,30.7,29.91,NW,323,4.0,-999.0,81,0.00,,,0.00,Wunderground v.1.15,2013-02-28 17:20:00,
2013-02-28 12:26:00,36.0,31.0,29.91,WSW,248,6.0,-999.0,82,0.00,,,0.00,Wunderground v.1.15,2013-02-28 17:26:00,
2013-02-28 12:32:00,35.9,30.9,29.91,West,277,6.0,-999.0,82,0.00,,,0.00,Wunderground v.1.15,2013-02-28 17:32:00,
2013-02-28 12:37:00,36.1,31.1,29.91,WNW,284,6.0,-999.0,82,0.00,,,0.00,Wunderground v.1.15,2013-02-28 17:37:00,
2013-02-28 12:43:00,36.3,31.3,29.91,WNW,294,4.0,-999.0,82,0.00,,,0.00,Wunderground v.1.15,2013-02-28 17:43:00,
2013-02-28 12:50:00,36.6,31.3,29.90,West,278,4.0,-999.0,81,0.00,,,0.00,Wunderground v.1.15,2013-02-28 17:50:00,
2013-02-28 12:56:00,36.6,31.6,29.90,NW,313,6.0,-999.0,82,0.00,,,0.00,Wunderground v.1.15,2013-02-28 17:56:00,
2013-02-28 13:01:00,36.8,31.8,29.90,NW,309,7.0,-999.0,82,0.00,,,0.00,Wunderground v.1.15,2013-02-28 18:01:00,
2013-02-28 13:08:00,37.0,31.7,29.90,NW,319,8.0,-999.0,81,0.00,,,0.00,Wunderground v.1.15,2013-02-28 18:08:00,
2013-02-28 13:14:00,37.0,31.7,29.90,WNW,284,6.0,-999.0,81,0.00,,,0.00,Wunderground v.1.15,2013-02-28 18:14:00,
2013-02-28 13:20:00,36.6,31.3,29.91,West,268,6.0,-999.0,81,0.00,,,0.00,Wunderground v.1.15,2013-02-28 18:20:00,
2013-02-28 13:26:00,36.8,32.1,29.91,West,264,6.0,-999.0,83,0.00,,,0.00,Wunderground v.1.15,2013-02-28 18:26:00,
2013-02-28 13:32:00,37.1,32.4,29.90,WSW,250,6.0,-999.0,83,0.00,,,0.00,Wunderground v.1.15,2013-02-28 18:32:00,
2013-02-28 13:38:00,37.2,32.2,29.90,NW,306,4.0,-999.0,82,0.00,,,0.00,Wunderground v.1.15,2013-02-28 18:38:00,
2013-02-28 13:43:00,37.6,32.3,29.90,WNW,290,3.0,-999.0,81,0.00,,,0.00,Wunderground v.1.15,2013-02-28 18:43:00,
2013-02-28 13:50:00,38.0,32.4,29.90,WNW,289,4.0,-999.0,80,0.00,,,0.00,Wunderground v.1.15,2013-02-28 18:50:00,
2013-02-28 13:56:00,38.2,32.3,29.90,West,265,4.0,-999.0,79,0.00,,,0.00,Wunderground v.1.15,2013-02-28 18:56:00,
2013-02-28 14:01:00,37.8,31.9,29.90,West,269,5.0,-999.0,79,0.00,,,0.00,Wunderground v.1.15,2013-02-28 19:01:00,
2013-02-28 14:07:00,37.7,31.8,29.90,WSW,250,6.0,-999.0,79,0.00,,,0.00,Wunderground v.1.15,2013-02-28 19:07:00,
2013-02-28 14:14:00,37.6,31.7,29.90,West,275,6.0,-999.0,79,0.00,,,0.00,Wunderground v.1.15,2013-02-28 19:14:00,
2013-02-28 14:20:00,37.7,32.1,29.90,WSW,257,5.0,-999.0,80,0.00,,,0.00,Wunderground v.1.15,2013-02-28 19:20:00,
2013-02-28 14:26:00,37.6,31.7,29.90,West,266,4.0,-999.0,79,0.00,,,0.00,Wunderground v.1.15,2013-02-28 19:26:00,
2013-02-28 14:32:00,37.4,31.5,29.90,West,263,4.0,-999.0,79,0.00,,,0.00,Wunderground v.1.15,2013-02-28 19:32:00,
2013-02-28 14:38:00,37.5,32.2,29.90,NW,310,4.0,-999.0,81,0.00,,,0.00,Wunderground v.1.15,2013-02-28 19:38:00,
2013-02-28 14:44:00,37.8,32.2,29.90,NW,306,3.0,-999.0,80,0.00,,,0.00,Wunderground v.1.15,2013-02-28 19:44:00,
2013-02-28 14:50:00,37.8,32.2,29.90,NW,309,3.0,-999.0,80,0.00,,,0.00,Wunderground v.1.15,2013-02-28 19:50:00,
2013-02-28 14:55:00,37.9,32.0,29.90,WNW,296,3.0,-999.0,79,0.00,,,0.00,Wunderground v.1.15,2013-02-28 19:55:00,
2013-02-28 15:02:00,37.9,32.0,29.91,WNW,294,2.0,-999.0,79,0.00,,,0.00,Wunderground v.1.15,2013-02-28 20:02:00,
2013-02-28 15:08:00,38.0,31.7,29.91,NW,309,3.0,-999.0,78,0.00,,,0.00,Wunderground v.1.15,2013-02-28 20:08:00,
2013-02-28 15:13:00,38.1,32.2,29.91,WNW,298,3.0,-999.0,79,0.00,,,0.00,Wunderground v.1.15,2013-02-28 20:13:00,
2013-02-28 15:20:00,38.0,31.4,29.91,WSW,249,3.0,-999.0,77,0.00,,,0.00,Wunderground v.1.15,2013-02-28 20:20:00,
2013-02-28 15:26:00,37.8,31.6,29.91,WNW,282,5.0,-999.0,78,0.00,,,0.00,Wunderground v.1.15,2013-02-28 20:26:00,
2013-02-28 15:32:00,37.8,31.2,29.92,West,265,5.0,-999.0,77,0.00,,,0.00,Wunderground v.1.15,2013-02-28 20:32:00,
2013-02-28 15:37:00,37.8,31.2,29.92,West,267,5.0,-999.0,77,0.00,,,0.00,Wunderground v.1.15,2013-02-28 20:37:00,
2013-02-28 15:44:00,37.8,31.2,29.92,West,273,5.0,-999.0,77,0.00,,,0.00,Wunderground v.1.15,2013-02-28 20:44:00,
2013-02-28 15:50:00,37.9,31.3,29.93,West,281,4.0,-999.0,77,0.00,,,0.00,Wunderground v.1.15,2013-02-28 20:50:00,
2013-02-28 15:56:00,37.9,31.7,29.93,West,277,3.0,-999.0,78,0.00,,,0.00,Wunderground v.1.15,2013-02-28 20:56:00,
2013-02-28 16:02:00,37.9,31.7,29.93,WNW,287,2.0,-999.0,78,0.00,,,0.00,Wunderground v.1.15,2013-02-28 21:02:00,
2013-02-28 16:07:00,38.0,31.7,29.93,West,277,2.0,-999.0,78,0.00,,,0.00,Wunderground v.1.15,2013-02-28 21:07:00,
2013-02-28 16:14:00,38.0,31.7,29.93,WNW,300,1.0,-999.0,78,0.00,,,0.00,Wunderground v.1.15,2013-02-28 21:14:00,
2013-02-28 16:20:00,37.9,31.3,29.94,WSW,250,3.0,-999.0,77,0.00,,,0.00,Wunderground v.1.15,2013-02-28 21:20:00,
2013-02-28 16:26:00,37.8,31.2,29.94,West,275,4.0,-999.0,77,0.00,,,0.00,Wunderground v.1.15,2013-02-28 21:26:00,
2013-02-28 16:32:00,37.7,31.1,29.94,West,271,3.0,-999.0,77,0.00,,,0.00,Wunderground v.1.15,2013-02-28 21:32:00,
2013-02-28 16:37:00,37.7,31.5,29.94,NW,306,4.0,-999.0,78,0.00,,,0.00,Wunderground v.1.15,2013-02-28 21:37:00,
2013-02-28 16:44:00,37.6,31.4,29.94,West,273,4.0,-999.0,78,0.00,,,0.00,Wunderground v.1.15,2013-02-28 21:44:00,
2013-02-28 16:50:00,37.5,31.6,29.94,West,266,3.0,-999.0,79,0.00,,,0.00,Wunderground v.1.15,2013-02-28 21:50:00,
2013-02-28 16:55:00,37.5,31.6,29.94,NW,309,3.0,-999.0,79,0.00,,,0.00,Wunderground v.1.15,2013-02-28 21:55:00,
2013-02-28 17:02:00,37.4,31.5,29.94,West,262,4.0,-999.0,79,0.00,,,0.00,Wunderground v.1.15,2013-02-28 22:02:00,
2013-02-28 17:08:00,37.3,31.4,29.94,WNW,294,4.0,-999.0,79,0.00,,,0.00,Wunderground v.1.15,2013-02-28 22:08:00,
2013-02-28 17:14:00,37.2,31.6,29.94,West,277,3.0,-999.0,80,0.00,,,0.00,Wunderground v.1.15,2013-02-28 22:14:00,
2013-02-28 17:19:00,37.2,31.6,29.94,West,269,1.0,-999.0,80,0.00,,,0.00,Wunderground v.1.15,2013-02-28 22:19:00,
2013-02-28 17:26:00,37.2,31.6,29.94,West,270,1.0,-999.0,80,0.00,,,0.00,Wunderground v.1.15,2013-02-28 22:26:00,
2013-02-28 17:32:00,37.2,31.6,29.95,West,274,2.0,-999.0,80,0.00,,,0.00,Wunderground v.1.15,2013-02-28 22:32:00,
2013-02-28 17:38:00,37.2,31.6,29.95,West,261,2.0,-999.0,80,0.00,,,0.00,Wunderground v.1.15,2013-02-28 22:38:00,
2013-02-28 17:43:00,37.2,31.6,29.95,West,269,2.0,-999.0,80,0.00,,,0.00,Wunderground v.1.15,2013-02-28 22:43:00,
2013-02-28 17:50:00,37.2,31.6,29.95,West,260,2.0,-999.0,80,0.00,,,0.00,Wunderground v.1.15,2013-02-28 22:50:00,
2013-02-28 17:56:00,37.2,31.6,29.95,West,261,1.0,-999.0,80,0.00,,,0.00,Wunderground v.1.15,2013-02-28 22:56:00,
2013-02-28 18:02:00,37.1,31.5,29.95,WNW,285,2.0,-999.0,80,0.00,,,0.00,Wunderground v.1.15,2013-02-28 23:02:00,
2013-02-28 18:07:00,37.1,31.5,29.95,West,261,2.0,-999.0,80,0.00,,,0.00,Wunderground v.1.15,2013-02-28 23:07:00,
2013-02-28 18:13:00,37.1,31.5,29.95,West,265,2.0,-999.0,80,0.00,,,0.00,Wunderground v.1.15,2013-02-28 23:13:00,
2013-02-28 18:20:00,37.0,31.7,29.95,West,268,2.0,-999.0,81,0.00,,,0.00,Wunderground v.1.15,2013-02-28 23:20:00,
2013-02-28 18:25:00,37.0,31.7,29.95,West,269,1.0,-999.0,81,0.00,,,0.00,Wunderground v.1.15,2013-02-28 23:25:00,
2013-02-28 18:32:00,36.9,31.6,29.95,West,270,1.0,-999.0,81,0.00,,,0.00,Wunderground v.1.15,2013-02-28 23:32:00,
2013-02-28 18:38:00,36.9,31.6,29.95,West,273,1.0,-999.0,81,0.00,,,0.00,Wunderground v.1.15,2013-02-28 23:38:00,
2013-02-28 18:44:00,36.8,31.5,29.95,West,279,1.0,-999.0,81,0.00,,,0.00,Wunderground v.1.15,2013-02-28 23:44:00,
2013-02-28 18:49:00,36.8,31.8,29.95,West,279,0.0,-999.0,82,0.00,,,0.00,Wunderground v.1.15,2013-02-28 23:49:00,
2013-02-28 18:56:00,36.8,31.8,29.95,West,279,0.0,-999.0,82,0.00,,,0.00,Wunderground v.1.15,2013-02-28 23:56:00,
2013-02-28 19:02:00,36.8,31.5,29.95,West,278,0.0,-999.0,81,0.00,,,0.00,Wunderground v.1.15,2013-03-01 00:02:00,
2013-02-28 19:08:00,36.7,31.4,29.95,West,277,1.0,-999.0,81,0.00,,,0.00,Wunderground v.1.15,2013-03-01 00:08:00,
2013-02-28 19:14:00,36.7,31.4,29.95,West,277,1.0,-999.0,81,0.00,,,0.00,Wunderground v.1.15,2013-03-01 00:14:00,
2013-02-28 19:19:00,36.6,31.6,29.95,West,277,1.0,-999.0,82,0.00,,,0.00,Wunderground v.1.15,2013-03-01 00:19:00,
2013-02-28 19:25:00,36.6,31.6,29.95,West,271,1.0,-999.0,82,0.00,,,0.00,Wunderground v.1.15,2013-03-01 00:25:00,
2013-02-28 19:32:00,36.6,31.6,29.96,West,271,2.0,-999.0,82,0.00,,,0.00,Wunderground v.1.15,2013-03-01 00:32:00,
2013-02-28 19:38:00,36.6,31.6,29.96,West,272,1.0,-999.0,82,0.00,,,0.00,Wunderground v.1.15,2013-03-01 00:38:00,
2013-02-28 19:44:00,36.6,31.6,29.96,West,271,1.0,-999.0,82,0.00,,,0.00,Wunderground v.1.15,2013-03-01 00:44:00,
2013-02-28 19:50:00,36.5,31.8,29.96,West,271,1.0,-999.0,83,0.00,,,0.00,Wunderground v.1.15,2013-03-01 00:50:00,
2013-02-28 19:56:00,36.6,31.9,29.96,West,273,1.0,-999.0,83,0.00,,,0.00,Wunderground v.1.15,2013-03-01 00:56:00,
2013-02-28 20:02:00,36.5,31.8,29.96,West,273,1.0,-999.0,83,0.00,,,0.00,Wunderground v.1.15,2013-03-01 01:02:00,
2013-02-28 20:08:00,36.5,31.8,29.96,West,272,0.0,-999.0,83,0.00,,,0.00,Wunderground v.1.15,2013-03-01 01:08:00,
2013-02-28 20:13:00,36.5,31.8,29.96,West,273,0.0,-999.0,83,0.00,,,0.00,Wunderground v.1.15,2013-03-01 01:13:00,
2013-02-28 20:20:00,36.5,33.6,29.97,West,273,1.0,-999.0,89,0.00,,,0.00,Wunderground v.1.15,2013-03-01 01:20:00,
2013-02-28 20:26:00,36.5,32.1,29.97,West,271,1.0,-999.0,84,0.00,,,0.00,Wunderground v.1.15,2013-03-01 01:26:00,
2013-02-28 20:31:00,36.5,32.1,29.97,WSW,249,1.0,-999.0,84,0.00,,,0.00,Wunderground v.1.15,2013-03-01 01:31:00,
2013-02-28 20:38:00,36.5,32.4,29.97,West,266,3.0,-999.0,85,0.00,,,0.00,Wunderground v.1.15,2013-03-01 01:38:00,
2013-02-28 20:44:00,36.4,32.3,29.97,West,259,4.0,-999.0,85,0.00,,,0.00,Wunderground v.1.15,2013-03-01 01:44:00,
2013-02-28 20:49:00,36.4,32.6,29.98,West,264,2.0,-999.0,86,0.00,,,0.00,Wunderground v.1.15,2013-03-01 01:49:00,
2013-02-28 20:56:00,36.3,32.5,29.98,West,265,1.0,-999.0,86,0.00,,,0.00,Wunderground v.1.15,2013-03-01 01:56:00,
2013-02-28 21:02:00,36.3,32.5,29.98,West,259,1.0,-999.0,86,0.00,,,0.00,Wunderground v.1.15,2013-03-01 02:02:00,
2013-02-28 21:07:00,36.2,32.4,29.98,WSW,258,0.0,-999.0,86,0.00,,,0.00,Wunderground v.1.15,2013-03-01 02:07:00,
2013-02-28 21:13:00,36.2,32.7,29.98,WSW,257,1.0,-999.0,87,0.00,,,0.00,Wunderground v.1.15,2013-03-01 02:13:00,
2013-02-28 21:20:00,36.1,32.6,29.97,NW,318,1.0,-999.0,87,0.00,,,0.00,Wunderground v.1.15,2013-03-01 02:20:00,
2013-02-28 21:26:00,36.0,32.5,29.97,WNW,295,1.0,-999.0,87,0.00,,,0.00,Wunderground v.1.15,2013-03-01 02:26:00,
2013-02-28 21:31:00,35.9,32.7,29.97,WNW,288,1.0,-999.0,88,0.00,,,0.00,Wunderground v.1.15,2013-03-01 02:31:00,
2013-02-28 21:38:00,35.8,32.9,29.97,West,262,1.0,-999.0,89,0.00,,,0.00,Wunderground v.1.15,2013-03-01 02:38:00,
2013-02-28 21:44:00,35.7,32.8,29.97,West,267,0.0,-999.0,89,0.00,,,0.00,Wunderground v.1.15,2013-03-01 02:44:00,
2013-02-28 21:50:00,35.7,32.8,29.97,West,267,1.0,-999.0,89,0.00,,,0.00,Wunderground v.1.15,2013-03-01 02:50:00,
2013-02-28 21:55:00,35.6,32.7,29.97,West,259,1.0,-999.0,89,0.00,,,0.00,Wunderground v.1.15,2013-03-01 02:55:00,
2013-02-28 22:02:00,35.6,33.0,29.97,West,259,1.0,-999.0,90,0.00,,,0.00,Wunderground v.1.15,2013-03-01 03:02:00,
2013-02-28 22:08:00,35.5,32.9,29.97,West,259,0.0,-999.0,90,0.00,,,0.00,Wunderground v.1.15,2013-03-01 03:08:00,
2013-02-28 22:14:00,35.4,33.0,29.97,WNW,302,0.0,-999.0,91,0.00,,,0.00,Wunderground v.1.15,2013-03-01 03:14:00,
2013-02-28 22:20:00,35.3,32.9,29.97,West,265,1.0,-999.0,91,0.00,,,0.00,Wunderground v.1.15,2013-03-01 03:20:00,
2013-02-28 22:25:00,35.3,32.9,29.97,West,278,1.0,-999.0,91,0.00,,,0.00,Wunderground v.1.15,2013-03-01 03:25:00,
2013-02-28 22:32:00,35.3,33.2,29.97,West,279,0.0,-999.0,92,0.00,,,0.00,Wunderground v.1.15,2013-03-01 03:32:00,
2013-02-28 22:38:00,35.2,33.1,29.97,West,279,0.0,-999.0,92,0.00,,,0.00,Wunderground v.1.15,2013-03-01 03:38:00,
2013-02-28 22:44:00,35.1,33.0,29.97,West,279,0.0,-999.0,92,0.00,,,0.00,Wunderground v.1.15,2013-03-01 03:44:00,
2013-02-28 22:50:00,35.1,33.0,29.97,West,279,0.0,-999.0,92,0.00,,,0.00,Wunderground v.1.15,2013-03-01 03:50:00,
2013-02-28 22:56:00,35.0,33.2,29.97,West,279,0.0,-999.0,93,0.00,,,0.00,Wunderground v.1.15,2013-03-01 03:56:00,
2013-02-28 23:02:00,35.0,33.2,29.97,West,278,0.0,-999.0,93,0.00,,,0.00,Wunderground v.1.15,2013-03-01 04:02:00,
2013-02-28 23:08:00,34.9,33.1,29.97,West,279,0.0,-999.0,93,0.00,,,0.00,Wunderground v.1.15,2013-03-01 04:08:00,
2013-02-28 23:14:00,34.9,33.1,29.97,West,279,0.0,-999.0,93,0.00,,,0.00,Wunderground v.1.15,2013-03-01 04:14:00,
2013-02-28 23:20:00,34.8,33.0,29.97,West,279,0.0,-999.0,93,0.00,,,0.00,Wunderground v.1.15,2013-03-01 04:20:00,
2013-02-28 23:25:00,34.8,33.2,29.97,West,279,0.0,-999.0,94,0.00,,,0.00,Wunderground v.1.15,2013-03-01 04:25:00,
2013-02-28 23:32:00,34.6,33.1,29.97,West,279,0.0,-999.0,94,0.00,,,0.00,Wunderground v.1.15,2013-03-01 04:32:00,
2013-02-28 23:38:00,34.4,32.9,29.97,West,279,0.0,-999.0,94,0.00,,,0.00,Wunderground v.1.15,2013-03-01 04:38:00,
2013-02-28 23:44:00,34.4,33.1,29.97,West,279,0.0,-999.0,95,0.00,,,0.01,Wunderground v.1.15,2013-03-01 04:44:00,
2013-02-28 23:49:00,34.4,33.1,29.97,West,279,0.0,-999.0,95,0.00,,,0.01,Wunderground v.1.15,2013-03-01 04:49:00,
2013-02-28 23:56:00,34.4,33.1,29.97,West,279,0.0,-999.0,95,0.00,,,0.01,Wunderground v.1.15,2013-03-01 04:56:00,